period_start,C,m1,H,J0,J1,J2,J3,J4,J5,JA,JB,JC,JD,JJ,JK,JN,#
2018-02-02 00:03:30,0.15,2.67,0.00,19.82,23.33,26.65,14.41,49.03,1040.14,2040.96,2480.26,2438.23,2793.34,599.43,615.88,18.61,0000 0000 0000 0000 000000
2018-02-02 00:08:31,0.17,2.68,0.00,19.81,23.31,26.61,14.45,49.10,1040.07,2040.98,2478.05,2436.54,2791.38,600.10,616.60,18.66,0000 0000 0000 0000 000000
2018-02-02 00:13:33,0.15,2.68,0.00,19.76,23.29,26.57,14.42,49.19,1040.08,2040.98,2475.96,2434.91,2789.47,599.69,616.28,18.71,0000 0000 0000 0000 000000
2018-02-02 00:18:34,0.14,2.69,0.00,19.72,23.27,26.54,14.58,49.26,1040.12,2040.99,2473.85,2433.28,2787.55,600.17,616.92,18.76,0000 0000 0000 0000 000000
2018-02-02 00:23:35,0.16,2.70,0.00,19.70,23.25,26.51,14.45,49.16,1040.19,2040.99,2471.60,2431.58,2785.52,599.89,616.61,18.81,0000 0000 0000 0000 000000
2018-02-02 00:28:36,0.16,2.71,0.00,19.68,23.23,26.50,14.43,49.13,1040.51,2040.99,2469.38,2429.90,2783.49,599.88,616.75,18.86,0000 0000 0000 0000 000000
2018-02-02 00:33:38,0.15,2.71,0.00,19.64,23.20,26.45,14.49,48.97,1040.53,2041.00,2467.26,2428.27,2781.57,599.98,617.01,18.91,0000 0000 0000 0000 000000
2018-02-02 00:38:39,0.16,2.72,0.00,19.62,23.18,26.44,14.43,48.64,1040.54,2041.03,2465.12,2426.64,2779.68,600.32,617.45,18.96,0000 0000 0000 0000 000000
2018-02-02 00:43:40,0.17,2.73,0.00,19.60,23.16,26.42,14.45,48.93,1040.54,2041.05,2462.83,2424.87,2777.71,600.24,617.43,19.01,0000 0000 0000 0000 000000
2018-02-02 00:48:42,0.17,2.74,0.00,19.53,23.13,26.37,14.41,48.76,1040.71,2041.13,2460.51,2423.18,2775.68,599.98,617.37,19.06,0000 0000 0000 0000 000000
2018-02-02 00:53:43,0.21,2.75,0.00,19.50,23.11,26.36,14.52,48.82,1040.95,2041.41,2458.09,2421.33,2773.52,599.69,617.32,19.11,0000 0000 0000 0000 000000
2018-02-02 00:58:44,0.22,2.76,0.00,19.46,23.08,26.33,14.48,48.66,1040.97,2041.87,2455.54,2419.43,2771.37,599.96,617.70,19.16,0000 0000 0000 0000 000000
2018-02-02 01:03:45,0.20,2.77,0.00,19.44,23.06,26.31,14.49,48.91,1041.00,2041.94,2452.85,2417.33,2768.96,599.68,617.43,19.21,0000 0000 0000 0000 000000
2018-02-02 01:08:46,0.22,2.78,0.00,19.41,23.03,26.27,14.50,48.93,1041.00,2041.98,2449.90,2415.15,2766.40,599.90,617.76,19.26,0000 0000 0000 0000 000000
2018-02-02 01:13:48,0.22,2.79,0.00,19.40,23.01,26.26,14.45,48.74,1040.72,2041.98,2446.89,2412.81,2763.69,599.91,617.58,19.31,0000 0000 0000 0000 000000
2018-02-02 01:18:49,0.22,2.80,0.00,19.37,22.98,26.20,14.42,48.85,1040.58,2041.99,2443.84,2410.50,2761.05,600.18,617.82,19.36,0000 0000 0000 0000 000000
2018-02-02 01:23:51,0.22,2.82,0.00,19.35,22.96,26.19,14.51,48.97,1040.57,2041.99,2440.72,2408.16,2758.32,599.91,617.59,19.41,0000 0000 0000 0000 000000
2018-02-02 01:28:52,0.22,2.83,0.00,19.37,22.93,26.15,14.43,48.88,1040.66,2041.99,2437.63,2405.79,2755.61,599.87,617.68,19.46,0000 0000 0000 0000 000000
2018-02-02 01:33:53,0.23,2.84,0.00,19.34,22.91,26.13,14.48,48.70,1040.67,2042.00,2434.44,2403.40,2752.85,600.24,618.03,19.51,0000 0000 0000 0000 000000
2018-02-02 01:38:55,0.23,2.85,0.00,19.32,22.89,26.12,14.47,48.62,1040.66,2042.01,2431.27,2400.99,2750.22,599.92,617.78,19.56,0000 0000 0000 0000 000000
2018-02-02 01:43:56,0.25,2.86,0.00,19.32,22.86,26.09,14.51,48.83,1040.57,2042.07,2427.99,2398.48,2747.41,600.37,618.07,19.61,0000 0000 0000 0000 000000
2018-02-02 01:48:58,0.32,2.88,0.00,19.30,22.84,26.07,14.55,49.13,1040.54,2042.38,2424.42,2395.76,2744.36,600.03,617.83,19.66,0000 0000 0000 0000 000000
2018-02-02 01:53:59,0.29,2.90,0.00,19.27,22.82,26.04,14.43,49.02,1040.54,2042.74,2420.89,2393.06,2741.28,599.72,617.56,19.71,0000 0000 0000 0000 000000
2018-02-02 01:59:00,0.26,2.91,0.00,19.27,22.79,26.05,14.50,49.06,1040.54,2042.95,2417.42,2390.42,2738.31,600.24,618.10,19.76,0000 0000 0000 0000 000000
2018-02-02 02:04:02,0.25,2.92,0.00,19.24,22.77,25.99,14.51,49.23,1040.53,2042.98,2414.05,2387.85,2735.39,600.04,617.87,19.81,0000 0000 0000 0000 000000
2018-02-02 02:09:03,0.24,2.93,0.00,19.20,22.75,26.00,14.48,49.22,1040.48,2042.97,2410.81,2385.34,2732.49,599.86,617.86,19.86,0000 0000 0000 0000 000000
2018-02-02 02:14:04,0.23,2.95,0.00,19.21,22.73,25.99,14.47,49.15,1040.43,2042.99,2407.65,2382.95,2729.73,600.06,617.94,19.91,0000 0000 0000 0000 000000
2018-02-02 02:19:05,0.22,2.96,0.00,19.20,22.71,25.98,14.55,49.13,1040.50,2042.99,2404.66,2380.62,2727.12,600.05,618.01,19.96,0000 0000 0000 0000 000000
2018-02-02 02:24:06,0.21,2.97,0.00,19.19,22.69,25.97,14.47,49.14,1040.44,2042.99,2401.74,2378.41,2724.58,599.49,617.45,20.01,0000 0000 0000 0000 000000
2018-02-02 02:29:07,0.22,2.98,0.00,19.16,22.67,25.93,14.52,49.08,1040.22,2043.00,2398.80,2376.12,2722.01,600.68,618.59,20.06,0000 0000 0000 0000 000000
2018-02-02 02:34:08,0.21,2.99,0.00,19.13,22.65,25.91,14.49,49.10,1040.53,2043.01,2395.91,2373.91,2719.45,599.86,617.98,20.11,0000 0000 0000 0000 000000
2018-02-02 02:39:10,0.21,3.00,0.00,19.10,22.63,25.88,14.48,49.02,1040.54,2043.02,2393.11,2371.74,2716.98,599.59,617.71,20.16,0000 0000 0000 0000 000000
2018-02-02 02:44:11,0.20,3.01,0.00,19.08,22.61,25.84,14.40,49.02,1040.54,2043.07,2390.41,2369.74,2714.65,599.54,617.79,20.21,0000 0000 0000 0000 000000
2018-02-02 02:49:13,0.25,3.02,0.00,19.06,22.59,25.85,14.55,49.06,1040.56,2043.33,2387.64,2367.74,2712.34,600.04,618.38,20.26,0000 0000 0000 0000 000000
2018-02-02 02:54:14,0.21,3.04,0.00,19.07,22.57,25.80,14.46,49.04,1040.80,2043.76,2385.09,2365.86,2710.03,600.03,618.55,20.31,0000 0000 0000 0000 000000
2018-02-02 02:59:15,0.20,3.05,0.00,19.05,22.54,25.79,14.47,48.94,1040.92,2043.93,2382.61,2363.99,2707.84,599.90,618.43,20.36,0000 0000 0000 0000 000000
2018-02-02 03:04:17,0.19,3.06,0.00,19.04,22.52,25.76,14.59,48.99,1041.03,2043.98,2380.11,2362.05,2705.65,600.17,618.78,20.41,0000 0000 0000 0000 000000
2018-02-02 03:09:18,0.18,3.07,0.00,19.04,22.51,25.75,14.51,49.06,1041.03,2043.99,2377.66,2360.15,2703.47,600.22,618.70,20.46,0000 0000 0000 0000 000000
2018-02-02 03:14:19,0.17,3.07,0.00,19.00,22.49,25.73,14.50,49.11,1041.03,2043.99,2375.29,2358.33,2701.35,599.50,618.18,20.51,0000 0000 0000 0000 000000
2018-02-02 03:19:21,0.19,3.08,0.00,18.99,22.47,25.71,14.52,49.23,1041.04,2043.99,2372.92,2356.46,2699.17,600.14,618.87,20.56,0000 0000 0000 0000 000000
2018-02-02 03:24:22,0.19,3.09,0.00,18.99,22.45,25.72,14.49,49.18,1041.03,2043.99,2370.46,2354.60,2696.99,599.87,618.60,20.61,0000 0000 0000 0000 000000
2018-02-02 03:29:24,0.18,3.10,0.00,18.99,22.43,25.68,14.53,49.19,1041.03,2043.99,2368.09,2352.74,2694.86,599.87,618.61,20.66,0000 0000 0000 0000 000000
2018-02-02 03:34:25,0.18,3.11,0.00,19.00,22.42,25.68,14.47,49.25,1040.92,2043.99,2365.85,2350.89,2692.73,599.98,618.62,20.71,0000 0000 0000 0000 000000
2018-02-02 03:39:26,0.18,3.12,0.00,18.98,22.39,25.66,14.41,49.33,1040.96,2044.00,2363.41,2348.96,2690.56,599.64,618.33,20.76,0000 0000 0000 0000 000000
2018-02-02 03:44:27,0.20,3.13,0.00,18.99,22.38,25.66,14.55,49.43,1041.03,2044.01,2360.91,2347.07,2688.35,600.05,618.82,20.81,0000 0000 0000 0000 000000
2018-02-02 03:49:28,0.19,3.14,0.00,18.99,22.36,25.63,14.48,49.40,1041.04,2044.02,2358.36,2345.12,2686.18,600.15,618.99,20.86,0000 0000 0000 0000 000000
2018-02-02 03:54:30,0.19,3.15,0.00,18.97,22.34,25.61,14.44,49.38,1041.03,2044.02,2355.93,2343.21,2684.01,599.93,618.70,20.91,0000 0000 0000 0000 000000
2018-02-02 03:59:31,0.18,3.16,0.00,18.95,22.32,25.59,14.50,49.38,1041.04,2044.04,2353.54,2341.40,2681.90,599.95,618.64,20.96,0000 0000 0000 0000 000000
2018-02-02 04:04:32,0.19,3.17,0.00,18.94,22.31,25.59,14.63,49.31,1041.19,2044.08,2351.13,2339.54,2679.76,600.19,619.15,21.01,0000 0000 0000 0000 000000
2018-02-02 04:09:34,0.22,3.18,0.00,18.94,22.29,25.57,14.49,49.42,1041.48,2044.36,2348.79,2337.72,2677.69,600.40,619.45,21.06,0000 0000 0000 0000 000000
2018-02-02 04:14:35,0.22,3.19,0.00,18.93,22.28,25.55,14.53,49.44,1041.52,2044.83,2346.40,2335.95,2675.67,600.05,619.26,21.11,0000 0000 0000 0000 000000
2018-02-02 04:19:37,0.19,3.20,0.00,18.91,22.27,25.53,14.60,49.47,1041.54,2044.91,2344.08,2334.10,2673.57,600.37,619.60,21.16,0000 0000 0000 0000 000000
2018-02-02 04:24:38,0.18,3.21,0.00,18.91,22.24,25.53,14.56,49.33,1041.56,2044.96,2341.69,2332.31,2671.50,600.21,619.37,21.21,0000 0000 0000 0000 000000
2018-02-02 04:29:39,0.19,3.22,0.00,18.90,22.23,25.52,14.53,49.43,1041.54,2044.97,2339.33,2330.53,2669.35,599.88,619.07,21.26,0000 0000 0000 0000 000000
2018-02-02 04:34:41,0.20,3.23,0.00,18.90,22.22,25.51,14.50,49.42,1041.82,2044.99,2336.86,2328.67,2667.16,599.77,619.12,21.31,0000 0000 0000 0000 000000
2018-02-02 04:39:42,0.20,3.24,0.00,18.89,22.20,25.51,14.44,49.23,1041.96,2044.99,2334.27,2326.69,2664.87,599.84,619.34,21.36,0000 0000 0000 0000 000000
2018-02-02 04:44:43,0.20,3.25,0.00,18.91,22.19,25.50,14.50,49.40,1041.95,2044.99,2331.59,2324.62,2662.51,599.96,619.51,21.41,0000 0000 0000 0000 000000
2018-02-02 04:49:44,0.22,3.26,0.00,18.92,22.18,25.50,14.50,49.38,1041.68,2044.99,2328.82,2322.48,2660.00,600.17,619.49,21.46,0000 0000 0000 0000 000000
2018-02-02 04:54:46,0.23,3.27,0.00,18.93,22.17,25.51,14.54,49.40,1041.58,2044.99,2325.97,2320.23,2657.40,599.96,619.15,21.51,0000 0000 0000 0000 000000
2018-02-02 04:59:47,0.24,3.28,0.00,18.93,22.17,25.49,14.46,49.45,1041.52,2044.99,2323.02,2317.93,2654.75,599.75,619.06,21.56,0000 0000 0000 0000 000000
2018-02-02 05:04:48,0.23,3.30,0.00,18.92,22.15,25.47,14.47,49.66,1041.52,2044.99,2320.06,2315.73,2652.12,599.99,619.25,21.61,0000 0000 0000 0000 000000
2018-02-02 05:09:49,0.23,3.31,0.00,18.94,22.14,25.46,14.56,49.59,1041.54,2044.99,2317.11,2313.40,2649.43,600.04,619.18,21.67,0000 0000 0000 0000 000000
2018-02-02 05:14:51,0.24,3.32,0.00,18.94,22.13,25.46,14.60,49.63,1041.56,2044.99,2314.10,2311.10,2646.85,600.24,619.34,21.72,0000 0000 0000 0000 000000
2018-02-02 05:19:52,0.23,3.33,0.00,18.93,22.12,25.46,14.57,49.72,1041.39,2044.99,2311.10,2308.81,2644.22,600.05,619.27,21.77,0000 0000 0000 0000 000000
2018-02-02 05:24:54,0.22,3.34,0.00,18.94,22.12,25.45,14.52,50.00,1041.05,2044.99,2308.28,2306.61,2641.67,600.06,618.83,21.82,0000 0000 0000 0000 000000
2018-02-02 05:29:55,0.23,3.35,0.00,18.94,22.10,25.45,14.55,49.90,1041.04,2045.02,2305.44,2304.38,2639.13,600.09,618.79,21.87,0000 0000 0000 0000 000000
2018-02-02 05:34:56,0.21,3.37,0.00,18.94,22.09,25.46,14.52,49.93,1041.03,2045.01,2302.86,2302.39,2636.62,600.21,619.06,21.92,0000 0000 0000 0000 000000
2018-02-02 05:39:58,0.21,3.38,0.00,18.92,22.08,25.44,14.55,49.65,1041.05,2045.01,2300.23,2300.31,2634.21,600.17,619.15,21.97,0000 0000 0000 0000 000000
2018-02-02 05:44:59,0.22,3.39,0.00,18.90,22.07,25.44,14.59,49.75,1041.20,2045.02,2297.52,2298.22,2631.80,600.29,619.21,22.02,0000 0000 0000 0000 000000
2018-02-02 05:50:00,0.20,3.40,0.00,18.88,22.06,25.41,14.47,49.70,1041.43,2045.05,2294.91,2296.25,2629.43,599.77,618.94,22.07,0000 0000 0000 0000 000000
2018-02-02 05:55:01,0.23,3.41,0.00,18.86,22.04,25.39,14.49,49.72,1041.51,2045.15,2292.27,2294.20,2627.10,599.95,619.30,22.12,0000 0000 0000 0000 000000
2018-02-02 06:00:03,0.21,3.42,0.00,18.84,22.03,25.38,14.53,49.65,1041.52,2045.15,2289.68,2292.20,2624.81,600.16,619.53,22.17,0000 0000 0000 0000 000000
2018-02-02 06:05:04,0.21,3.43,0.00,18.83,22.02,25.35,14.45,49.47,1041.52,2045.36,2287.23,2290.28,2622.71,600.26,619.73,22.22,0000 0000 0000 0000 000000
2018-02-02 06:10:05,0.22,3.44,0.00,18.81,21.99,25.35,14.56,49.69,1041.52,2045.58,2284.73,2288.39,2620.61,600.09,619.50,22.27,0000 0000 0000 0000 000000
2018-02-02 06:15:07,0.22,3.45,0.00,18.79,21.99,25.34,14.53,49.63,1041.52,2045.87,2282.33,2286.59,2618.49,599.73,619.15,22.32,0000 0000 0000 0000 000000
2018-02-02 06:20:08,0.20,3.46,0.00,18.78,21.97,25.32,14.50,49.72,1041.52,2045.94,2279.90,2284.71,2616.39,599.84,619.33,22.37,0000 0000 0000 0000 000000
2018-02-02 06:25:09,0.19,3.48,0.00,18.76,21.96,25.31,14.48,49.75,1041.19,2045.98,2277.45,2282.88,2614.28,600.23,619.62,22.42,0000 0000 0000 0000 000000
2018-02-02 06:30:11,0.19,3.49,0.00,18.76,21.94,25.28,14.53,49.80,1041.18,2045.98,2275.09,2281.03,2612.18,600.01,619.29,22.47,0000 0000 0000 0000 000000
2018-02-02 06:35:12,0.18,3.49,0.00,18.76,21.93,25.26,14.54,49.80,1041.50,2045.99,2272.88,2279.32,2610.20,600.03,619.60,22.52,0000 0000 0000 0000 000000
2018-02-02 06:40:14,0.18,3.50,0.00,18.72,21.92,25.28,14.53,49.67,1041.52,2045.99,2270.58,2277.59,2608.15,600.11,619.72,22.57,0000 0000 0000 0000 000000
2018-02-02 06:45:15,0.18,3.51,0.00,18.70,21.90,25.23,14.54,49.77,1041.51,2045.99,2268.40,2275.82,2606.18,600.48,620.11,22.62,0000 0000 0000 0000 000000
2018-02-02 06:50:16,0.18,3.52,0.00,18.70,21.89,25.24,14.59,49.77,1041.49,2045.99,2266.08,2274.06,2604.11,600.16,619.78,22.67,0000 0000 0000 0000 000000
2018-02-02 06:55:18,0.17,3.53,0.00,18.70,21.87,25.22,14.52,49.90,1041.27,2045.99,2263.88,2272.36,2602.16,600.01,619.49,22.72,0000 0000 0000 0000 000000
2018-02-02 07:00:19,0.18,3.54,0.00,18.70,21.87,25.19,14.48,49.92,1041.05,2046.00,2261.62,2270.64,2600.18,600.18,619.57,22.77,0000 0000 0000 0000 000000
2018-02-02 07:05:20,0.18,3.55,0.00,18.69,21.85,25.19,14.51,49.78,1041.03,2046.00,2259.46,2268.86,2598.23,599.78,619.17,22.82,0000 0000 0000 0000 000000
2018-02-02 07:10:22,0.19,3.56,0.00,18.69,21.84,25.19,14.51,50.05,1041.04,2046.02,2257.12,2267.12,2596.23,600.12,619.38,22.87,0000 0000 0000 0000 000000
2018-02-02 07:15:23,0.17,3.57,0.00,18.68,21.83,25.18,14.54,50.05,1041.04,2046.01,2254.80,2265.28,2594.10,600.00,619.34,22.92,0000 0000 0000 0000 000000
2018-02-02 07:20:24,0.20,3.58,0.00,18.65,21.82,25.16,14.51,50.05,1041.31,2046.05,2252.51,2263.47,2591.99,599.74,619.36,22.97,0000 0000 0000 0000 000000
2018-02-02 07:25:26,0.19,3.59,0.00,18.64,21.80,25.16,14.51,49.85,1041.52,2046.05,2250.24,2261.69,2589.90,599.68,619.37,23.02,0000 0000 0000 0000 000000
2018-02-02 07:30:27,0.21,3.60,0.00,18.63,21.79,25.14,14.50,49.75,1041.53,2046.17,2247.96,2259.88,2587.80,599.85,619.62,23.07,0000 0000 0000 0000 000000
2018-02-02 07:35:28,0.21,3.61,0.00,18.62,21.78,25.14,14.50,49.77,1041.52,2046.39,2245.54,2258.05,2585.68,599.64,619.49,23.12,0000 0000 0000 0000 000000
2018-02-02 07:40:29,0.23,3.62,0.00,18.62,21.77,25.11,14.52,49.79,1041.55,2046.61,2243.05,2256.12,2583.50,600.18,620.07,23.17,0000 0000 0000 0000 000000
2018-02-02 07:45:31,0.20,3.63,0.00,18.60,21.77,25.10,14.53,49.80,1041.53,2046.48,2240.47,2254.07,2581.15,599.89,619.73,23.22,0000 0000 0000 0000 000000
2018-02-02 07:50:32,0.25,3.64,0.00,18.59,21.76,25.09,14.45,49.83,1041.55,2046.63,2237.90,2251.93,2578.64,599.85,619.59,23.27,0000 0000 0000 0000 000000
2018-02-02 07:55:33,0.27,3.66,0.00,18.61,21.75,25.07,14.57,49.98,1041.79,2046.82,2235.02,2249.53,2575.97,599.74,619.77,23.32,0000 0000 0000 0000 000000
2018-02-02 08:00:35,0.26,3.67,0.00,18.60,21.74,25.07,14.55,49.88,1041.78,2046.90,2231.99,2247.16,2573.19,600.09,620.09,23.37,0000 0000 0000 0000 000000
2018-02-02 08:05:36,0.25,3.68,0.00,18.61,21.74,25.05,14.55,49.83,1041.94,2046.93,2229.00,2244.81,2570.44,600.45,620.54,23.42,0000 0000 0000 0000 000000
2018-02-02 08:10:37,0.25,3.70,0.00,18.62,21.73,25.05,14.58,49.98,1042.01,2046.93,2225.99,2242.42,2567.81,600.32,620.38,23.47,0000 0000 0000 0000 000000
2018-02-02 08:15:38,0.24,3.71,0.00,18.63,21.72,25.05,14.56,49.98,1042.00,2046.97,2223.24,2240.24,2565.25,600.30,620.37,23.52,0000 0000 0000 0000 000000
2018-02-02 08:20:39,0.23,3.72,0.00,18.63,21.72,25.06,14.47,49.99,1041.99,2046.97,2220.46,2238.24,2562.74,599.72,619.78,23.57,0000 0000 0000 0000 000000
2018-02-02 08:25:41,0.24,3.73,0.00,18.64,21.72,25.05,14.53,50.17,1041.78,2046.95,2217.65,2236.04,2560.19,600.18,620.05,23.62,0000 0000 0000 0000 000000
2018-02-02 08:30:42,0.24,3.74,0.00,18.66,21.72,25.04,14.54,50.16,1041.59,2046.96,2214.82,2233.76,2557.77,600.07,619.87,23.67,0000 0000 0000 0000 000000
2018-02-02 08:35:44,0.25,3.76,0.00,18.67,21.71,25.05,14.61,49.99,1042.00,2046.96,2211.84,2231.41,2555.11,600.21,620.36,23.72,0000 0000 0000 0000 000000
2018-02-02 08:40:45,0.26,3.77,0.00,18.66,21.70,25.04,14.58,49.78,1042.21,2046.98,2208.82,2229.05,2552.40,600.58,620.73,23.77,0000 0000 0000 0000 000000
2018-02-02 08:45:46,0.27,3.78,0.00,18.64,21.70,25.05,14.62,49.86,1042.19,2046.97,2205.64,2226.54,2549.49,600.35,620.57,23.82,0000 0000 0000 0000 000000
2018-02-02 08:50:48,0.30,3.80,0.00,18.66,21.69,25.04,14.57,49.97,1042.09,2046.98,2202.23,2223.83,2546.38,600.17,620.26,23.87,0000 0000 0000 0000 000000
2018-02-02 08:55:49,0.30,3.81,0.00,18.67,21.69,25.03,14.47,50.12,1042.21,2046.98,2198.79,2221.02,2543.24,599.81,619.88,23.92,0000 0000 0000 0000 000000
2018-02-02 09:00:50,0.30,3.83,0.00,18.67,21.69,25.03,14.46,49.94,1042.15,2046.97,2195.31,2218.25,2540.01,599.97,620.05,23.97,0000 0000 0000 0000 000000
2018-02-02 09:05:52,0.29,3.84,0.00,18.68,21.69,25.06,14.59,49.92,1042.17,2046.99,2191.97,2215.57,2536.91,600.37,620.45,24.02,0000 0000 0000 0000 000000
2018-02-02 09:10:53,0.30,3.86,0.00,18.69,21.70,25.06,14.59,49.98,1042.05,2046.99,2188.66,2212.86,2533.77,599.97,620.05,24.07,0000 0000 0000 0000 000000
2018-02-02 09:15:54,0.29,3.87,0.00,18.70,21.70,25.06,14.50,49.89,1042.02,2046.98,2185.37,2210.14,2530.61,599.58,619.53,24.12,0000 0000 0000 0000 000000
2018-02-02 09:20:55,0.30,3.89,0.00,18.73,21.72,25.06,14.51,49.92,1042.16,2046.98,2181.94,2207.40,2527.50,599.74,619.69,24.17,0000 0000 0000 0000 000000
2018-02-02 09:25:56,0.31,3.90,0.00,18.74,21.72,25.08,14.43,49.92,1042.47,2046.97,2178.40,2204.61,2524.30,599.50,619.67,24.22,0000 0000 0000 0000 000000
2018-02-02 09:30:58,0.31,3.92,0.00,18.73,21.72,25.10,14.52,49.99,1042.44,2046.99,2174.98,2201.83,2521.11,599.79,619.87,24.27,0000 0000 0000 0000 000000
2018-02-02 09:35:59,0.31,3.94,0.00,18.74,21.72,25.10,14.49,49.92,1042.50,2046.98,2171.49,2198.95,2517.81,600.09,620.21,24.33,0000 0000 0000 0000 000000
2018-02-02 09:41:00,0.32,3.95,0.00,18.75,21.73,25.11,14.48,49.95,1042.50,2046.97,2167.89,2196.05,2514.45,599.72,619.82,24.38,0000 0000 0000 0000 000000
2018-02-02 09:46:01,0.32,3.97,0.00,18.77,21.74,25.13,14.54,49.91,1042.49,2046.93,2164.30,2193.09,2511.06,599.88,619.95,24.43,0000 0000 0000 0000 000000
2018-02-02 09:51:03,0.32,3.98,0.00,18.77,21.74,25.12,14.50,49.77,1042.47,2046.95,2160.76,2190.24,2507.79,599.93,619.89,24.48,0000 0000 0000 0000 000000
2018-02-02 09:56:04,0.30,4.00,0.00,18.79,21.75,25.16,14.54,49.86,1042.49,2046.85,2157.14,2187.35,2504.45,600.13,620.17,24.53,0000 0000 0000 0000 000000
2018-02-02 10:01:05,0.28,4.02,0.00,18.80,21.77,25.17,14.63,49.86,1042.50,2046.47,2153.49,2184.34,2501.03,600.15,620.21,24.58,0000 0000 0000 0000 000000
2018-02-02 10:06:07,0.31,4.03,0.00,18.80,21.77,25.17,14.56,49.88,1042.50,2046.18,2149.78,2181.36,2497.61,600.24,620.26,24.63,0000 0000 0000 0000 000000
2018-02-02 10:11:08,0.33,4.05,0.00,18.81,21.78,25.19,14.46,49.82,1042.50,2046.18,2146.15,2178.46,2494.37,599.97,620.11,24.68,0000 0000 0000 0000 000000
2018-02-02 10:16:10,0.32,4.06,0.00,18.82,21.79,25.19,14.57,49.84,1042.50,2046.23,2142.66,2175.64,2491.11,600.14,620.02,24.73,0000 0000 0000 0000 000000
2018-02-02 10:21:11,0.33,4.08,0.00,18.83,21.79,25.21,14.51,49.82,1042.51,2046.26,2139.10,2172.86,2487.85,600.15,620.06,24.78,0000 0000 0000 0000 000000
2018-02-02 10:26:12,0.32,4.10,0.00,18.83,21.82,25.23,14.56,49.79,1042.51,2046.13,2135.40,2169.92,2484.43,600.07,620.01,24.83,0000 0000 0000 0000 000000
2018-02-02 10:31:13,0.34,4.11,0.00,18.84,21.82,25.24,14.55,49.77,1042.50,2046.02,2131.65,2166.80,2480.86,599.86,619.81,24.88,0000 0000 0000 0000 000000
2018-02-02 10:36:15,0.35,4.13,0.00,18.84,21.83,25.25,14.47,49.76,1042.69,2046.01,2127.82,2163.75,2477.36,599.80,619.92,24.93,0000 0000 0000 0000 000000
2018-02-02 10:41:16,0.36,4.15,0.00,18.84,21.84,25.27,14.47,49.80,1042.67,2046.00,2123.90,2160.62,2473.78,600.04,620.03,24.98,0000 0000 0000 0000 000000
2018-02-02 10:46:17,0.34,4.17,0.00,18.86,21.86,25.28,14.61,49.91,1042.52,2046.00,2120.06,2157.56,2470.27,600.31,620.16,25.03,0000 0000 0000 0000 000000
2018-02-02 10:51:18,0.34,4.19,0.00,18.88,21.87,25.30,14.59,49.84,1042.51,2046.00,2116.38,2154.55,2466.83,600.08,620.02,25.08,0000 0000 0000 0000 000000
2018-02-02 10:56:20,0.35,4.20,0.00,18.90,21.89,25.31,14.45,49.76,1042.51,2046.00,2112.63,2151.51,2463.32,599.87,619.67,25.13,0000 0000 0000 0000 000000
2018-02-02 11:01:21,0.34,4.22,0.00,18.92,21.90,25.32,14.56,49.86,1042.55,2046.00,2109.07,2148.48,2459.80,600.40,620.22,25.18,0000 0000 0000 0000 000000
2018-02-02 11:06:22,0.35,4.24,0.00,18.93,21.92,25.32,14.50,49.84,1042.62,2045.99,2105.34,2145.47,2456.33,599.83,619.69,25.23,0000 0000 0000 0000 000000
2018-02-02 11:11:23,0.36,4.26,0.00,18.94,21.93,25.36,14.43,49.93,1042.55,2045.97,2101.52,2142.33,2452.75,600.07,619.76,25.28,0000 0000 0000 0000 000000
2018-02-02 11:16:24,0.36,4.27,0.00,18.95,21.94,25.36,14.54,50.08,1042.50,2045.96,2097.64,2139.12,2449.10,600.16,619.86,25.33,0000 0000 0000 0000 000000
2018-02-02 11:21:26,0.36,4.29,0.00,18.97,21.96,25.39,14.50,49.98,1042.55,2045.91,2093.74,2135.99,2445.45,600.05,619.72,25.38,0000 0000 0000 0000 000000
2018-02-02 11:26:27,0.36,4.31,0.00,18.98,21.97,25.40,14.49,50.02,1042.52,2045.77,2089.80,2132.79,2441.76,599.75,619.38,25.43,0000 0000 0000 0000 000000
2018-02-02 11:31:28,0.34,4.33,0.00,18.98,21.99,25.40,14.58,49.94,1042.54,2045.62,2086.01,2129.67,2438.16,600.10,619.71,25.48,0000 0000 0000 0000 000000
2018-02-02 11:36:29,0.32,4.34,0.00,18.97,21.99,25.40,14.57,50.01,1042.55,2045.24,2082.07,2126.48,2434.52,599.80,619.46,25.53,0000 0000 0000 0000 000000
2018-02-02 11:41:30,0.35,4.36,0.00,18.99,22.01,25.42,14.68,49.96,1042.53,2045.08,2078.29,2123.41,2431.05,600.29,619.89,25.58,0000 0000 0000 0000 000000
2018-02-02 11:46:31,0.36,4.38,0.00,19.00,22.02,25.45,14.48,49.86,1042.50,2045.05,2074.46,2120.36,2427.60,599.71,619.27,25.63,0000 0000 0000 0000 000000
2018-02-02 11:51:33,0.37,4.40,0.00,19.02,22.04,25.45,14.40,49.76,1042.55,2045.02,2070.59,2117.24,2424.00,599.76,619.26,25.68,0000 0000 0000 0000 000000
2018-02-02 11:56:34,0.37,4.42,0.00,19.03,22.04,25.44,14.43,49.83,1042.54,2045.01,2066.65,2114.03,2420.32,599.80,619.33,25.73,0000 0000 0000 0000 000000
2018-02-02 12:01:35,0.35,4.44,0.00,19.05,22.07,25.48,14.52,49.83,1042.53,2045.00,2062.86,2110.99,2416.80,599.83,619.39,25.78,0000 0000 0000 0000 000000
2018-02-02 12:06:36,0.36,4.45,0.00,19.07,22.07,25.49,14.59,49.77,1042.53,2045.00,2059.09,2108.04,2413.26,600.19,619.64,25.83,0000 0000 0000 0000 000000
2018-02-02 12:11:37,0.37,4.47,0.00,19.07,22.09,25.50,14.50,49.88,1042.52,2045.00,2055.25,2104.97,2409.73,599.80,619.27,25.88,0000 0000 0000 0000 000000
2018-02-02 12:16:39,0.37,4.49,0.00,19.09,22.10,25.51,14.59,49.88,1042.51,2045.00,2051.45,2101.86,2406.14,600.40,619.78,25.93,0000 0000 0000 0000 000000
2018-02-02 12:21:40,0.35,4.51,0.00,19.10,22.12,25.51,14.59,49.92,1042.70,2044.98,2047.83,2098.86,2402.57,600.16,619.71,25.98,0000 0000 0000 0000 000000
2018-02-02 12:26:41,0.37,4.53,0.00,19.11,22.12,25.53,14.53,49.81,1042.87,2044.96,2044.28,2095.69,2398.95,600.06,619.64,26.03,0000 0000 0000 0000 000000
2018-02-02 12:31:42,0.40,4.55,0.00,19.12,22.14,25.56,14.48,49.88,1042.92,2044.91,2040.10,2092.42,2395.21,599.96,619.60,26.08,0000 0000 0000 0000 000000
2018-02-02 12:36:44,0.38,4.57,0.00,19.13,22.14,25.56,14.49,49.87,1042.98,2044.82,2035.98,2089.21,2391.53,600.02,619.71,26.13,0000 0000 0000 0000 000000
2018-02-02 12:41:45,0.34,4.59,0.00,19.14,22.16,25.55,14.50,49.77,1042.98,2044.46,2031.90,2085.96,2387.79,600.10,619.74,26.18,0000 0000 0000 0000 000000
2018-02-02 12:46:46,0.38,4.60,0.00,19.15,22.17,25.56,14.56,49.86,1042.98,2044.21,2027.80,2082.75,2384.20,600.22,619.76,26.23,0000 0000 0000 0000 000000
2018-02-02 12:51:48,0.37,4.62,0.00,19.14,22.18,25.59,14.50,49.73,1042.98,2044.27,2023.98,2079.67,2380.69,599.87,619.36,26.28,0000 0000 0000 0000 000000
2018-02-02 12:56:49,0.37,4.64,0.00,19.16,22.19,25.60,14.47,49.67,1042.98,2044.17,2020.15,2076.53,2377.03,599.69,619.28,26.33,0000 0000 0000 0000 000000